Simultaneous Nadir Overpasses (SNOs) Predictions

Prediction of SNOs between METOP-B and NOAA-19 Satellite Orbit:

Table of predicted SNOs for the next 14.0 days since TLE Epoch: 8/10/2024
Index Date (METOP-B) Time (METOP-B) Lat,Lon (METOP-B) SZA (METOP-B ) Date (NOAA-19) Time (NOAA-19) Lat,Lon (NOAA-19) SZA (NOAA-19 ) Distance(km) Time Diff (sec)
1 08/17/2024 22:52:30 -63.84, 138.95 88.80 08/17/2024 22:51:19 -63.85, 138.94 88.91 0.41 71
2 08/17/2024 23:42:33 61.64, -51.90 93.10 08/17/2024 23:41:44 61.64, -51.90 93.01 0.52 49
3 08/18/2024 00:32:41 -59.90, 116.71 85.43 08/18/2024 00:32:05 -59.89, 116.72 85.49 0.71 36
4 08/18/2024 01:22:29 56.79, -73.98 97.18 08/18/2024 01:22:15 56.78, -73.97 97.17 1.56 14
5 08/18/2024 02:12:32 -54.76, 94.50 81.14 08/18/2024 02:12:31 -54.76, 94.51 81.13 0.91 1
6 08/18/2024 03:01:56 50.22, -95.96 102.60 08/18/2024 03:02:17 50.20, -95.94 102.67 2.64 21
7 08/18/2024 03:51:58 -48.14, 72.28 75.71 08/18/2024 03:52:32 -48.14, 72.28 75.63 0.07 34
8 08/18/2024 04:41:49 45.10,-119.20 106.75 08/18/2024 04:42:46 45.11,-119.25 106.84 4.31 57



Historial Predications of SNOs between METOP-B and NOAA-19
